User: anonymous
Location: Deep South Regional Star Gaze
(30.9929°N, 90.9586°W)
Time: 10:55:10
(UTC-05:00)
Language:

MSX - Orbit

View from above orbital plane
View from above orbital plane
View from above satellite
View from above satellite

Ground track
Ground track

The orbit data is extracted from the following two-line orbital elements,

1 23851U 96024A   14206.10630712 0.00000100  00000-0  70550-4 0    08
2 23851  98.7836 250.5891 0007000   4.3757 355.6241 13.97974350    09
Epoch (UTC): 25 July 2014 02:33:04
Eccentricity: 0.0007000
inclination: 98.7836°
perigee height: 896 km
apogee height: 906 km
right ascension of ascending node: 250.5891°
argument of perigee: 4.3757°
revolutions per day: 13.97974350
mean anomaly at epoch: 355.6241°
orbit number at epoch: 0

The dashed part of the orbit path shows where the satellite is in the earth's shadow,  

DLR